Date String (YYYY-MM-DD hh:mm:ss) UTC,Instrument flags,absolute air pressure of the measurement (hPa),sample flow rate (lpm),inlet stack bypass flow (lpm),air temperature of the measurement (°C),ambient temperature measured by the external sensor (°C),aerosol sample conditioner tube jacket temperature (°C),OPC LED temperature (°C),internal box temperature (°C),relative humidity of the measurement (%),span deviation,mass concentration of particles derived from Lorenz-Mie calculation of OPC scattering (μg/m³),mass concentration of particles derived from Lorenz-Mie calculation of OPC scattering (μg/m³),mass concentration of particles derived from Lorenz-Mie calculation of OPC scattering (μg/m³)
DateTimeUTC,F1_M11,P_M11,Q1_M11,Q2_M11,T1_M11,T2_M11,T3_M11,T4_M11,T5_M11,U1_M11,ZSPAN_M11,X0_M11,X2_M11,X1_M11
2024-03-05 17:00:00,SystemResetWarning,0829.1,5.00,000.00,018.4,017.6,000.0,027.0,020.0,12.7,0000.0,0011.80,0002.56,0001.38
2024-03-05 17:01:00,SystemResetWarning,0829.2,5.00,000.00,018.4,017.5,000.0,027.0,020.0,12.9,0000.0,0011.56,0002.58,0001.40
2024-03-05 17:02:00,SystemResetWarning,0829.1,5.00,000.00,018.3,017.5,000.0,027.0,020.0,12.7,0000.0,0011.14,0002.55,0001.40
2024-03-05 17:03:00,SystemResetWarning,0829.1,5.00,000.00,018.3,017.5,000.0,027.0,020.0,12.7,0000.0,0010.72,0002.50,0001.40
2024-03-05 17:04:00,SystemResetWarning,0829.1,5.00,000.00,018.3,017.5,000.0,027.1,020.0,12.8,0000.0,0010.11,0002.54,0001.41
2024-03-05 17:05:00,SystemResetWarning,0829.1,5.00,000.00,018.3,017.4,000.0,027.0,020.0,12.6,0000.0,0009.68,0002.54,0001.41
2024-03-05 17:06:00,SystemResetWarning,0829.0,5.00,000.00,018.3,017.4,000.0,027.0,020.0,12.5,0000.0,0009.47,0002.62,0001.44
2024-03-05 17:07:00,SystemResetWarning,0829.0,5.00,000.00,018.3,017.4,000.0,027.0,020.0,12.6,0000.0,0010.48,0002.55,0001.45
2024-03-05 17:08:00,SystemResetWarning,0829.0,5.01,000.00,018.3,017.4,000.0,027.0,020.0,12.7,0000.0,0010.66,0002.56,0001.46
2024-03-05 17:09:00,SystemResetWarning,0829.0,5.00,000.00,018.3,017.4,000.0,027.0,020.0,12.8,0000.0,0010.11,0002.58,0001.47
2024-03-05 17:10:00,SystemResetWarning,0829.0,5.01,000.00,018.3,017.4,000.0,027.0,020.0,12.6,0000.0,0010.21,0002.50,0001.46
2024-03-05 17:11:00,SystemResetWarning,0828.9,5.00,000.00,018.3,017.4,000.0,027.0,020.0,12.7,0000.0,0010.95,0002.62,0001.48
2024-03-05 17:12:00,SystemResetWarning,0829.0,4.99,000.00,018.3,017.4,000.0,027.0,020.0,12.9,0000.0,0011.20,0002.72,0001.49
2024-03-05 17:13:00,SystemResetWarning,0828.9,4.99,000.00,018.3,017.4,000.0,027.0,020.0,12.9,0000.0,0011.25,0002.74,0001.49
2024-03-05 17:14:00,SystemResetWarning,0829.0,5.01,000.00,018.3,017.4,000.0,027.0,020.0,12.9,0000.0,0011.27,0002.79,0001.50
2024-03-05 17:15:00,SystemResetWarning,0829.0,5.01,000.00,018.2,017.4,000.0,027.0,020.0,12.7,0000.0,0011.63,0002.75,0001.49
2024-03-05 17:16:00,SystemResetWarning,0829.0,4.99,000.00,018.2,017.3,000.0,027.0,020.0,12.8,0000.0,0012.41,0002.78,0001.49
2024-03-05 17:17:00,SystemResetWarning,0829.0,4.99,000.00,018.2,017.3,000.0,027.0,020.0,13.0,0000.0,0012.65,0002.85,0001.48
2024-03-05 17:18:00,SystemResetWarning,0829.0,4.99,000.00,018.2,017.3,000.0,027.0,020.0,12.9,0000.0,0012.11,0002.83,0001.47
2024-03-05 17:19:00,SystemResetWarning,0829.0,5.00,000.00,018.2,017.3,000.0,027.0,020.0,12.8,0000.0,0011.73,0002.79,0001.46
2024-03-05 17:20:00,SystemResetWarning,0829.0,5.02,000.00,018.2,017.3,000.0,027.0,020.0,12.7,0000.0,0011.51,0002.75,0001.45
2024-03-05 17:21:00,SystemResetWarning,0829.0,5.00,000.00,018.2,017.3,000.0,027.0,020.0,12.8,0000.0,0011.89,0002.78,0001.44
2024-03-05 17:22:00,SystemResetWarning,0828.9,5.00,000.00,018.2,017.3,000.0,027.0,020.0,12.6,0000.0,0011.32,0002.69,0001.42
2024-03-05 17:23:00,SystemResetWarning,0828.8,5.00,000.00,018.3,017.5,000.0,027.0,020.1,12.6,0000.0,0011.20,0002.66,0001.40
2024-03-05 17:24:00,SystemResetWarning,0828.9,5.00,000.00,018.5,018.5,000.0,027.1,020.7,12.6,0000.0,0011.25,0002.66,0001.40
2024-03-05 17:25:00,SystemResetWarning,0828.9,5.00,000.00,018.8,019.3,000.0,027.1,021.1,12.3,0000.0,0011.42,0002.62,0001.38
2024-03-05 17:26:00,SystemResetWarning,0828.8,4.99,000.00,018.8,019.2,000.0,027.1,020.9,12.3,0000.0,0010.83,0002.58,0001.37
2024-03-05 17:27:00,SystemResetWarning,0828.8,4.99,000.00,018.8,018.9,000.0,027.0,020.7,12.3,0000.0,0009.64,0002.56,0001.37
2024-03-05 17:28:00,SystemResetWarning,0828.8,5.02,000.00,018.8,018.7,000.0,027.0,020.5,12.2,0000.0,0009.16,0002.41,0001.37
2024-03-05 17:29:00,SystemResetWarning,0828.8,5.01,000.00,018.7,018.5,000.0,027.0,020.3,12.3,0000.0,0008.55,0002.39,0001.38
2024-03-05 17:30:00,SystemResetWarning,0828.7,4.98,000.00,018.7,018.3,000.0,027.0,020.2,12.2,0000.0,0008.33,0002.41,0001.38
2024-03-05 17:31:00,SystemResetWarning,0828.7,4.99,000.00,018.6,018.1,000.0,027.0,020.1,12.5,0000.0,0008.68,0002.43,0001.39
2024-03-05 17:32:00,SystemResetWarning,0828.7,5.01,000.00,018.6,018.0,000.0,027.0,020.1,12.4,0000.0,0008.93,0002.47,0001.39
2024-03-05 17:33:00,SystemResetWarning,0828.7,5.02,000.00,018.5,017.9,000.0,027.0,020.0,12.5,0000.0,0009.21,0002.52,0001.40
2024-03-05 17:34:00,SystemResetWarning,0828.7,4.99,000.00,018.5,017.8,000.0,027.0,020.0,12.5,0000.0,0008.99,0002.51,0001.43
2024-03-05 17:35:00,SystemResetWarning,0828.6,4.99,000.00,018.4,017.7,000.0,027.0,020.0,13.0,0000.0,0008.98,0002.55,0001.45
2024-03-05 17:36:00,SystemResetWarning,0828.7,5.00,000.00,018.4,017.7,000.0,027.0,020.0,13.0,0000.0,0009.21,0002.55,0001.47
2024-03-05 17:37:00,SystemResetWarning,0828.7,5.01,000.00,018.4,017.7,000.0,027.0,020.0,12.8,0000.0,0009.92,0002.63,0001.48
2024-03-05 17:38:00,SystemResetWarning,0828.6,5.00,000.00,018.4,017.6,000.0,027.0,020.0,12.8,0000.0,0010.30,0002.66,0001.48
2024-03-05 17:39:00,SystemResetWarning,0828.7,4.99,000.00,018.4,017.6,000.0,027.0,020.0,13.0,0000.0,0011.16,0002.72,0001.49
2024-03-05 17:40:00,SystemResetWarning,0828.6,4.99,000.00,018.4,017.6,000.0,027.0,020.0,12.7,0000.0,0011.42,0002.77,0001.50
2024-03-05 17:41:00,SystemResetWarning,0828.6,5.01,000.00,018.3,017.6,000.0,027.0,020.0,12.8,0000.0,0010.96,0002.81,0001.50
2024-03-05 17:42:00,SystemResetWarning,0828.6,5.00,000.00,018.3,017.6,000.0,027.0,020.0,12.8,0000.0,0010.74,0002.85,0001.50
2024-03-05 17:43:00,SystemResetWarning,0828.6,5.01,000.00,018.3,017.6,000.0,027.0,020.0,12.7,0000.0,0009.58,0002.80,0001.50
2024-03-05 17:44:00,SystemResetWarning,0828.6,4.99,000.00,018.3,017.6,000.0,027.0,020.0,12.6,0000.0,0009.96,0002.79,0001.51
2024-03-05 17:45:00,SystemResetWarning,0828.6,4.99,000.00,018.3,017.6,000.0,027.0,020.0,12.8,0000.0,0010.43,0002.76,0001.51
2024-03-05 17:46:00,SystemResetWarning,0828.5,5.00,000.00,018.3,017.6,000.0,027.0,020.0,12.7,0000.0,0010.46,0002.72,0001.49
2024-03-05 17:47:00,SystemResetWarning,0828.5,5.00,000.00,018.3,017.6,000.0,027.0,020.0,12.8,0000.0,0010.50,0002.72,0001.48
2024-03-05 17:48:00,SystemResetWarning,0828.6,5.01,000.00,018.3,017.6,000.0,026.9,020.0,12.8,0000.0,0009.93,0002.75,0001.47
2024-03-05 17:49:00,SystemResetWarning,0828.6,5.00,000.00,018.3,017.5,000.0,026.9,020.0,12.6,0000.0,0009.57,0002.78,0001.50
2024-03-05 17:50:00,SystemResetWarning,0828.6,5.01,000.00,018.3,017.5,000.0,027.0,020.0,12.8,0000.0,0010.26,0002.78,0001.51
2024-03-05 17:51:00,SystemResetWarning,0828.5,5.00,000.00,018.3,017.5,000.0,027.0,020.0,12.6,0000.0,0010.82,0002.75,0001.50
2024-03-05 17:52:00,SystemResetWarning,0828.4,4.98,000.00,018.3,017.5,000.0,026.9,020.0,12.6,0000.0,0011.26,0002.79,0001.53
2024-03-05 17:53:00,SystemResetWarning,0828.4,5.00,000.00,018.3,017.5,000.0,027.0,020.0,12.7,0000.0,0011.61,0002.77,0001.53
2024-03-05 17:54:00,SystemResetWarning,0828.4,5.01,000.00,018.3,017.4,000.0,026.9,020.0,12.8,0000.0,0011.98,0002.77,0001.54
2024-03-05 17:55:00,SystemResetWarning,0828.4,5.01,000.00,018.3,017.5,000.0,026.9,020.0,13.0,0000.0,0011.91,0002.76,0001.54
2024-03-05 17:56:00,SystemResetWarning,0828.4,4.99,000.00,018.3,017.5,000.0,026.9,020.0,12.9,0000.0,0012.18,0002.74,0001.55
2024-03-05 17:57:00,SystemResetWarning,0828.3,4.99,000.00,018.3,017.5,000.0,026.9,020.0,12.7,0000.0,0012.26,0002.77,0001.56
2024-03-05 17:58:00,SystemResetWarning,0828.4,5.00,000.00,018.3,017.5,000.0,026.9,020.0,12.8,0000.0,0012.10,0002.80,0001.57
2024-03-05 17:59:00,SystemResetWarning,0828.3,5.01,000.00,018.3,017.5,000.0,026.9,020.0,12.7,0000.0,0011.83,0002.76,0001.58
